Weather in Turovets

Russia / Vologda Oblast     59°34′29″N   41°55′50″E
temp.,
°C
wind,
m/s
gust,
m/s
humid.,
%
clouds,
%
prec.,
mm/h
press.,
hPa
HPBL,
m
1 july, fri
fri100:00+8ne25764 0.0 102090
03:00+6ne24835 0.0 102174
06:00+10ne25650 0.0 1022224
09:00+15ne46435 0.0 10221264
12:00+19ne463621 0.0 10221642
15:00+21nne343494 0.0 10221829
18:00+21ne244646 0.0 10211472
21:00+14w11675 0.0 102211
2 july, sat
sat200:00+11w227613 0.0 102217
03:00+11w2272100 0.0 102134
06:00+14w256650 0.0 1020158
09:00+18wnw355781 0.0 1019322
12:00+23wnw34483 0.0 1018935
15:00+26n255136 0.0 10161356
18:00+25nne474913 0.0 1015889
21:00+18nne38741 0.0 1016132
3 july, sun
sun300:00+14nne24860 0.0 101772
03:00+13ne22950 0.0 101741
06:00+16ene23833 0.0 1018208
09:00+21ene24560 0.0 1018914
12:00+24ne23400 0.0 10171531
15:00+25ne23372 0.0 10171885
18:00+25nne12504 0.0 10161195
21:00+18sse11695 0.0 101611
4 july, mon
mon400:00+15w11768 0.0 101711
03:00+14w11815 0.0 101710
06:00+17wnw12715 0.0 1017109
09:00+24nnw11520 0.0 1017559
12:00+28ne01360 0.0 10161887
15:00+29n01330 0.0 10152220
18:00+27ese11490 0.0 1015162
21:00+20s22700 0.0 101512
5 july, tue
tue500:00+17sw22732 0.0 101512
03:00+15sw228092 0.0 101513
06:00+19ssw127331 0.0 1015106
09:00+23sw246518 0.1 1015420
12:00+28sw354331 0.0 10131920
15:00+25sw495677 0.0 1012482
18:00+25ssw586627 0.4 1011735
21:00+19sw3109092 1.1 1011247